SCP
0 0 0 0 0 0 0 0 0 0 0 0 0 0 0 0 0 0 0 0 0 0 0 0 0 0 0 0 0 0 0 0 0 0 0 0 0 0 0 0 0 0 0
0 0 0 0 0 0 0 0 0 0 0 0 0 0 0 0 0 0 0 0 0 0 0 0 0 0 0 0 0 0 0 0 0 0 0 0 0 0 0 0 0 0 0
0 0 0 0 0 0 0 0 0 0 0 0 0 0 0 0 0 0 0 0 0 0 0 0 0 0 0 0 0 0 0 0 0 0 0 0 0 0 0 0 0 0 0
0 0 0 0 0 0 0 0 0 0 0 0 0 0 0 0 0 0 0 0 0 0 0 0 0 0 0 0 0 0 0 0 0 0 0 0 0 0 0 0 0 0 0
0 0 0 0 0 0 0 0 0 0 0 0 0 0 0 0 0 0 0 0 0 0 0 0 0 0 0 0 0 0 0 0 0 0 0 0 0 0 0 0 0 0 0
0 0 0 0 0 0 0 0 0 0 0 0 0 0 0 0 0 0 0 0 0 0 0 0 0 0 0 0 0 0 0 0 0 0 0 0 0 0 0 0 0 0 0
0 0 0 0 0 0 0 0 0 0 0 0 0 0 0 0 0 0 0 0 0 0 0 0 0 0 0 0 0 0 0 0 0 0 0 0 0 0 0 0 0 0 0
0 0 0 0 0 0 0 0 0 0 0 0 0 0 0 0 0 0 0 0 0 0 0 0 0 0 0 0 0 0 0 0 0 0 0 0 0 0 0 0 0 0 0
0 0 0 0 0 0 0 0 0 0 0 0 0 0 0 0 0 0 0 0 0 0 0 0 0 0 0 0 0 0 0 0 0 0 0 0 0 0 0 0 0 0 0
0 0 0 0 0 0 0 0 0 0 0 0 0 0 0 0 0 0 0 0 0 0 0 0 0 0 0 0 0 0 0 0 0 0 0 0 0 0 0 0 0 0 0
0 0 0 0 0 0 0 0 0 0 0 0 0 0 0 0 0 0 0 0 0 0 0 0 0 0 0 0 0 0 0 0 0 0 0 0 0 0 0 0 0 0 0
0 0 0 0 0 0 0 0 0 0 0 0 0 0 0 0 0 0 0 0 0 0 0 0 0 0 0 -0 0 0 0 0 0 0 0 0 0 0 0 0 0 0 0
0 0 0 0 0 0 0 0 0 0 0 0 0 0 0 0 0 0 0 0 0 0 -0 -0 0 0 0 0 0 0 0 0 0 0 0 0 0 0 0 0 0 0 0
0 0 0 0 0 0 0 0 0 0 0 0 0 0 0 0 0 0 0 0 0 0 0 0 -0 0 0 0 0 0 0 0 0 0 0 0 0 0 0 0 0 0 0
0 0 0 0 0 0 0 0 0 0 0 0 0 0 0 0 0 0 0 0 0 0 0 0 0 0 -0 0 0 -0 -0 -0 0 0 0 0 0 0 0 0 0 0 0
0 0 0 0 0 0 0 0 0 0 0 0 0 0 0 0 0 0 0 0 0 0 0 0 0 0 0 -0 -0 0 -0 -0 -0 0 0 0 0 0 0 0 0 0 0
0 0 0 0 0 0 0 0 0 0 0 0 0 0 0 0 0 0 0 0 0 0 0 0 0 0 0 0 -0 -0 -0 -0 -0 -0 0 0 0 0 0 0 0 0 0
0 0 0 0 0 0 0 0 0 0 0 0 0 0 0 0 0 0 0 0 0 0 0 0 0 0 0 0 -0 -0 -0 0 0 -0 0 0 0 0 0 0 0 0 0
0 0 0 0 0 0 0 0 0 0 0 0 0 0 0 0 0 0 0 0 0 0 0 0 0 0 0 0 0 0 -0 -0 0 0 0 0 0 0 0 0 0 0 0
0 0 0 0 0 0 0 0 0 0 0 0 0 0 0 0 0 0 0 0 0 0 0 0 0 0 0 0 0 0 0 0 0 0 0 0 0 0 0 0 0 0 0
0 0 0 0 0 0 0 0 0 0 0 0 0 0 0 0 0 0 0 0 0 0 0 0 0 0 0 0 0 0 0 0 0 0 0 0 0 0 0 0 0 0 0
0 0 0 0 0 0 0 0 0 0 0 0 0 0 0 0 0 0 0 0 0 0 0 0 0 0 0 0 0 0 0 0 0 -0 0 0 0 0 0 0 0 0 0
0 0 0 0 0 0 0 0 0 0 0 0 0 0 0 0 0 0 0 0 0 0 0 0 0 0 0 0 0 0 0 0 0 0 0 0 0 0 0 0 0 0 0
0 0 0 0 0 0 0 0 0 0 0 0 0 0 0 0 0 0 0 0 0 0 0 0 0 0 0 0 0 0 0 0 0 0 0 0 0 0 0 0 0 0 0
0 0 0 0 0 0 0 0 0 0 0 0 0 0 0 0 0 0 0 0 0 0 0 0 0 0 0 0 0 0 0 0 0 0 0 0 0 0 0 0 0 0 0
0 0 0 0 0 0 0 0 0 0 0 0 0 0 0 0 0 0 0 0 0 0 0 0 0 0 0 0 0 0 0 0 0 0 0 0 -0 -0 -0 0 0 0 0
Wind_Speed_500mb
21 12 7 6 3 6 8 10 9 13 16 15 16 18 20 21 22 21 21 20 20 21 21 22 23 23 23 22 22 21 24 35 40 30 28 26 27 29 29 30 32 37 42
17 13 9 7 13 8 6 5 13 8 14 13 15 13 18 20 19 19 21 21 21 21 22 23 24 24 24 25 26 25 25 24 23 38 41 40 38 36 33 33 33 33 36
16 12 9 12 12 9 10 8 3 4 8 6 10 15 17 17 17 15 17 20 24 24 25 25 27 27 27 27 27 27 29 31 20 23 32 39 39 41 40 39 35 32 33
14 13 15 12 10 11 8 6 5 5 4 7 9 13 13 12 13 15 19 23 22 23 25 28 30 28 27 26 27 30 31 32 31 33 36 37 39 43 46 47 43 36 34
21 18 14 14 11 7 6 6 5 4 5 9 10 9 7 12 11 12 16 17 21 26 31 34 36 36 35 35 34 30 28 31 36 38 38 31 25 43 48 50 49 47 42
21 18 18 15 11 7 7 4 5 7 11 17 14 16 12 19 14 11 14 21 25 28 33 38 43 40 38 41 39 39 40 35 35 37 43 44 45 33 37 46 52 49 48
23 20 19 18 15 11 10 9 9 11 13 17 13 12 12 9 11 15 16 19 27 35 40 42 44 44 47 46 43 42 43 43 46 48 46 48 47 48 42 23 28 49 49
26 22 19 16 13 11 11 11 13 16 17 18 19 8 4 5 3 15 14 24 34 41 46 48 49 50 50 51 52 47 44 44 48 46 46 49 50 49 63 64 58 39 42
26 19 16 12 10 9 10 14 17 19 24 24 24 18 7 7 32 9 22 34 43 47 49 51 52 54 55 53 51 50 48 51 50 45 43 43 47 50 53 54 63 57 57
24 19 13 10 9 12 14 18 23 27 25 27 26 26 22 21 15 22 36 46 48 50 52 52 52 52 53 53 54 53 54 56 52 48 52 55 51 48 50 55 57 63 65
21 16 12 11 11 14 19 23 25 28 30 29 26 22 18 17 19 27 35 53 51 51 53 54 58 57 56 55 51 54 58 60 62 68 72 68 67 67 64 59 55 59 61
20 16 12 9 11 15 17 21 24 25 27 27 27 26 25 24 25 30 42 52 56 56 49 49 53 55 58 61 60 62 65 68 74 78 79 80 77 75 71 66 62 57 56
20 14 9 7 8 12 16 20 23 25 24 24 24 24 24 24 26 28 34 44 58 66 64 58 53 58 63 64 67 74 79 78 73 71 78 81 78 78 74 67 64 64 61
17 12 6 3 4 9 14 19 21 22 21 21 21 21 24 27 30 34 38 44 58 65 71 68 69 66 63 72 78 80 82 83 88 86 74 74 79 78 74 70 66 64 64
16 12 10 5 4 8 14 17 18 18 18 21 22 25 27 30 32 35 37 41 43 45 71 72 72 77 80 79 78 84 89 87 83 84 84 77 71 73 68 64 60 60 59
20 18 13 8 3 8 13 16 17 17 19 22 25 27 30 32 34 36 38 39 39 40 51 76 79 82 90 94 92 85 86 86 82 79 78 76 70 64 60 56 55 54 51
24 20 15 9 1 7 14 14 15 17 20 25 30 33 34 36 38 40 42 42 44 46 59 80 82 87 92 99 99 92 84 82 79 72 69 63 61 62 62 60 57 52 57
27 23 17 10 2 8 13 14 16 18 23 29 34 36 37 40 42 44 44 45 49 51 59 77 87 92 94 95 96 93 85 76 76 75 67 63 60 60 59 59 61 60 59
30 25 18 11 6 11 15 15 17 20 25 32 36 38 41 43 44 45 47 49 51 56 64 75 91 92 93 92 93 90 89 85 80 74 71 68 65 60 60 58 57 59 60
33 28 22 14 11 13 16 17 21 24 30 34 37 41 43 44 45 47 49 50 56 63 69 76 85 91 89 90 88 91 96 89 88 85 85 77 73 73 67 62 58 55 55
37 32 26 20 17 18 21 25 28 32 35 37 40 43 45 45 45 47 50 53 58 66 69 73 80 84 87 84 84 86 89 92 90 86 89 84 85 81 71 76 71 60 48
42 36 32 26 23 22 25 29 34 38 39 41 44 47 47 46 45 46 48 53 58 57 62 62 74 73 86 77 83 86 89 94 91 67 78 99 80 86 83 75 64 58 56
46 41 37 30 27 27 28 33 38 41 42 44 47 49 48 46 46 48 50 56 59 61 42 53 68 72 82 83 83 90 81 80 83 88 94 95 80 73 76 68 60 56 54
51 46 38 35 33 31 32 36 39 42 44 46 50 50 49 47 46 50 56 61 66 66 68 68 69 69 66 71 78 83 84 84 81 72 61 80 75 75 69 75 66 55 46
56 47 42 41 39 35 38 41 43 45 46 50 52 49 48 47 46 51 51 57 64 70 70 73 59 64 74 72 68 66 70 67 71 64 64 64 57 61 67 73 67 27 30
53 50 50 49 47 43 46 44 45 47 50 51 52 49 49 48 49 47 45 51 64 71 75 79 76 72 66 64 59 54 54 54 64 80 71 63 76 70 58 65 35 65 69
Wind_Direction_500mb
189 195 180 217 252 319 334 341 359 357 7 3 7 12 10 10 10 11 11 2 351 345 340 334 328 323 318 313 303 315 323 326 321 314 325 319 317 319 318 305 294 284 272
204 208 196 202 273 262 294 345 334 323 348 335 332 342 351 353 352 351 354 356 352 346 341 334 328 320 312 306 299 296 289 294 311 307 319 312 310 319 321 323 311 299 288
195 197 200 223 210 225 270 275 277 253 283 254 314 331 342 345 348 338 334 339 342 339 335 329 327 322 313 305 297 290 286 281 279 294 317 306 306 303 311 318 318 309 298
188 194 202 206 193 199 195 226 291 334 314 294 330 341 343 337 338 342 341 343 345 350 353 351 349 344 336 321 307 301 297 290 277 270 284 298 303 296 299 308 309 308 308
179 184 177 170 159 174 205 233 305 348 23 25 35 33 19 33 30 3 350 355 357 356 356 352 348 343 336 331 328 321 310 306 294 283 277 265 295 293 286 300 298 303 304
166 171 166 164 158 156 167 148 79 40 30 41 42 55 58 57 54 23 4 1 2 1 1 358 354 355 354 349 340 326 319 325 328 295 277 268 257 269 277 287 285 291 301
148 138 130 127 125 127 104 82 50 42 41 48 57 69 72 48 17 2 348 349 346 347 343 344 345 346 342 342 339 339 336 326 312 309 307 288 272 258 263 293 283 275 291
138 140 135 127 109 85 77 54 29 16 18 22 30 62 134 214 21 310 315 328 337 337 336 341 340 339 337 335 332 334 332 331 329 324 307 298 296 279 259 263 261 266 277
136 131 125 114 99 75 53 43 35 26 31 27 26 38 26 359 331 255 288 322 329 335 337 339 341 340 336 333 329 327 322 321 321 319 321 316 299 294 289 279 264 256 248
142 139 131 110 84 60 50 38 33 28 24 28 26 26 11 356 346 316 316 328 335 339 342 345 342 343 338 335 329 321 317 316 314 305 307 307 306 309 303 293 285 267 262
144 138 119 93 72 51 38 32 24 17 12 9 10 18 10 358 343 331 325 333 331 338 342 343 344 344 341 338 331 324 320 315 309 305 304 302 301 297 300 299 293 286 279
145 129 110 83 55 41 28 18 15 11 13 12 8 3 358 354 347 339 331 330 332 336 338 341 340 339 338 337 331 321 315 311 308 306 304 303 300 298 296 294 290 288 284
150 146 127 81 44 28 24 20 14 9 6 4 5 6 2 357 348 340 333 330 331 333 335 337 340 337 338 334 328 326 323 320 313 306 304 303 302 298 296 294 288 285 282
156 146 142 133 45 34 23 11 2 359 2 7 6 1 355 348 341 336 336 334 331 328 328 331 334 335 333 330 328 325 322 320 317 314 307 301 300 300 298 296 293 286 283
171 171 186 172 84 35 14 7 5 6 5 4 357 353 347 340 335 332 331 329 328 320 320 325 327 329 328 327 326 323 321 319 315 312 310 305 297 297 300 301 299 297 294
187 190 181 166 83 19 15 12 6 5 357 354 349 344 337 333 328 326 323 323 319 315 308 319 324 326 326 324 325 323 320 318 316 312 308 305 305 304 306 307 303 299 296
193 188 184 185 139 11 5 4 355 350 347 346 342 337 330 325 325 322 322 321 319 318 313 318 322 323 322 322 323 324 323 320 320 319 316 312 304 299 299 298 297 297 299
199 197 195 194 233 347 344 340 337 339 339 339 337 332 326 324 320 317 317 317 317 318 317 317 320 320 320 321 322 324 327 322 320 323 325 322 317 309 304 302 294 290 294
204 202 201 213 263 316 324 321 319 320 325 329 328 323 321 317 314 313 312 313 314 315 318 317 317 319 321 325 325 324 327 327 326 326 325 324 322 319 317 312 305 298 295
209 211 216 229 263 293 301 299 300 304 312 315 317 319 316 312 311 310 309 311 314 319 319 318 318 321 323 326 327 326 323 324 325 325 324 324 326 321 318 316 313 311 301
213 215 226 240 264 281 288 289 289 296 299 303 309 314 313 311 309 308 309 313 318 318 319 319 319 321 322 320 319 319 314 315 315 318 318 320 320 319 314 317 315 311 308
217 222 231 245 265 278 283 284 287 290 293 300 308 311 311 309 307 306 307 312 315 317 315 315 317 310 312 313 313 311 310 310 308 319 312 310 310 309 311 317 314 304 299
223 228 235 249 264 274 279 283 284 286 292 300 306 308 307 306 305 305 308 311 314 317 308 306 305 308 305 314 318 315 310 304 303 301 304 302 311 306 315 315 311 305 302
229 233 242 254 261 266 273 277 280 285 293 299 302 304 303 303 303 305 310 314 318 316 314 314 309 309 313 308 301 300 301 301 303 310 310 301 311 310 314 314 318 315 305
233 238 247 254 257 260 267 271 276 285 291 297 298 298 299 300 303 307 312 312 311 309 313 310 307 310 315 315 315 312 310 312 311 311 302 307 311 308 308 309 318 309 306
238 243 250 255 256 258 262 266 274 282 288 293 293 297 297 300 303 303 307 308 301 309 313 313 314 314 317 318 321 324 323 315 304 304 308 304 309 313 311 311 297 296 313
Wind_Speed_850mb
21 12 7 6 3 6 8 10 9 13 16 15 16 18 20 21 22 21 21 20 20 21 21 22 23 23 23 22 22 21 24 35 40 30 28 26 27 29 29 30 32 37 42
17 13 9 7 13 8 6 5 13 8 14 13 15 13 18 20 19 19 21 21 21 21 22 23 24 24 24 25 26 25 25 24 23 38 41 40 38 36 33 33 33 33 36
16 12 9 12 12 9 10 8 3 4 8 6 10 15 17 17 17 15 17 20 24 24 25 25 27 27 27 27 27 27 29 31 20 23 32 39 39 41 40 39 35 32 33
14 13 15 12 10 11 8 6 5 5 4 7 9 13 13 12 13 15 19 23 22 23 25 28 30 28 27 26 27 30 31 32 31 33 36 37 39 43 46 47 43 36 34
21 18 14 14 11 7 6 6 5 4 5 9 10 9 7 12 11 12 16 17 21 26 31 34 36 36 35 35 34 30 28 31 36 38 38 31 25 43 48 50 49 47 42
21 18 18 15 11 7 7 4 5 7 11 17 14 16 12 19 14 11 14 21 25 28 33 38 43 40 38 41 39 39 40 35 35 37 43 44 45 33 37 46 52 49 48
23 20 19 18 15 11 10 9 9 11 13 17 13 12 12 9 11 15 16 19 27 35 40 42 44 44 47 46 43 42 43 43 46 48 46 48 47 48 42 23 28 49 49
26 22 19 16 13 11 11 11 13 16 17 18 19 8 4 5 3 15 14 24 34 41 46 48 49 50 50 51 52 47 44 44 48 46 46 49 50 49 63 64 58 39 42
26 19 16 12 10 9 10 14 17 19 24 24 24 18 7 7 32 9 22 34 43 47 49 51 52 54 55 53 51 50 48 51 50 45 43 43 47 50 53 54 63 57 57
24 19 13 10 9 12 14 18 23 27 25 27 26 26 22 21 15 22 36 46 48 50 52 52 52 52 53 53 54 53 54 56 52 48 52 55 51 48 50 55 57 63 65
21 16 12 11 11 14 19 23 25 28 30 29 26 22 18 17 19 27 35 53 51 51 53 54 58 57 56 55 51 54 58 60 62 68 72 68 67 67 64 59 55 59 61
20 16 12 9 11 15 17 21 24 25 27 27 27 26 25 24 25 30 42 52 56 56 49 49 53 55 58 61 60 62 65 68 74 78 79 80 77 75 71 66 62 57 56
20 14 9 7 8 12 16 20 23 25 24 24 24 24 24 24 26 28 34 44 58 66 64 58 53 58 63 64 67 74 79 78 73 71 78 81 78 78 74 67 64 64 61
17 12 6 3 4 9 14 19 21 22 21 21 21 21 24 27 30 34 38 44 58 65 71 68 69 66 63 72 78 80 82 83 88 86 74 74 79 78 74 70 66 64 64
16 12 10 5 4 8 14 17 18 18 18 21 22 25 27 30 32 35 37 41 43 45 71 72 72 77 80 79 78 84 89 87 83 84 84 77 71 73 68 64 60 60 59
20 18 13 8 3 8 13 16 17 17 19 22 25 27 30 32 34 36 38 39 39 40 51 76 79 82 90 94 92 85 86 86 82 79 78 76 70 64 60 56 55 54 51
24 20 15 9 1 7 14 14 15 17 20 25 30 33 34 36 38 40 42 42 44 46 59 80 82 87 92 99 99 92 84 82 79 72 69 63 61 62 62 60 57 52 57
27 23 17 10 2 8 13 14 16 18 23 29 34 36 37 40 42 44 44 45 49 51 59 77 87 92 94 95 96 93 85 76 76 75 67 63 60 60 59 59 61 60 59
30 25 18 11 6 11 15 15 17 20 25 32 36 38 41 43 44 45 47 49 51 56 64 75 91 92 93 92 93 90 89 85 80 74 71 68 65 60 60 58 57 59 60
33 28 22 14 11 13 16 17 21 24 30 34 37 41 43 44 45 47 49 50 56 63 69 76 85 91 89 90 88 91 96 89 88 85 85 77 73 73 67 62 58 55 55
37 32 26 20 17 18 21 25 28 32 35 37 40 43 45 45 45 47 50 53 58 66 69 73 80 84 87 84 84 86 89 92 90 86 89 84 85 81 71 76 71 60 48
42 36 32 26 23 22 25 29 34 38 39 41 44 47 47 46 45 46 48 53 58 57 62 62 74 73 86 77 83 86 89 94 91 67 78 99 80 86 83 75 64 58 56
46 41 37 30 27 27 28 33 38 41 42 44 47 49 48 46 46 48 50 56 59 61 42 53 68 72 82 83 83 90 81 80 83 88 94 95 80 73 76 68 60 56 54
51 46 38 35 33 31 32 36 39 42 44 46 50 50 49 47 46 50 56 61 66 66 68 68 69 69 66 71 78 83 84 84 81 72 61 80 75 75 69 75 66 55 46
56 47 42 41 39 35 38 41 43 45 46 50 52 49 48 47 46 51 51 57 64 70 70 73 59 64 74 72 68 66 70 67 71 64 64 64 57 61 67 73 67 27 30
53 50 50 49 47 43 46 44 45 47 50 51 52 49 49 48 49 47 45 51 64 71 75 79 76 72 66 64 59 54 54 54 64 80 71 63 76 70 58 65 35 65 69
Wind_Direction_850mb
189 195 180 217 252 319 334 341 359 357 7 3 7 12 10 10 10 11 11 2 351 345 340 334 328 323 318 313 303 315 323 326 321 314 325 319 317 319 318 305 294 284 272
204 208 196 202 273 262 294 345 334 323 348 335 332 342 351 353 352 351 354 356 352 346 341 334 328 320 312 306 299 296 289 294 311 307 319 312 310 319 321 323 311 299 288
195 197 200 223 210 225 270 275 277 253 283 254 314 331 342 345 348 338 334 339 342 339 335 329 327 322 313 305 297 290 286 281 279 294 317 306 306 303 311 318 318 309 298
188 194 202 206 193 199 195 226 291 334 314 294 330 341 343 337 338 342 341 343 345 350 353 351 349 344 336 321 307 301 297 290 277 270 284 298 303 296 299 308 309 308 308
179 184 177 170 159 174 205 233 305 348 23 25 35 33 19 33 30 3 350 355 357 356 356 352 348 343 336 331 328 321 310 306 294 283 277 265 295 293 286 300 298 303 304
166 171 166 164 158 156 167 148 79 40 30 41 42 55 58 57 54 23 4 1 2 1 1 358 354 355 354 349 340 326 319 325 328 295 277 268 257 269 277 287 285 291 301
148 138 130 127 125 127 104 82 50 42 41 48 57 69 72 48 17 2 348 349 346 347 343 344 345 346 342 342 339 339 336 326 312 309 307 288 272 258 263 293 283 275 291
138 140 135 127 109 85 77 54 29 16 18 22 30 62 134 214 21 310 315 328 337 337 336 341 340 339 337 335 332 334 332 331 329 324 307 298 296 279 259 263 261 266 277
136 131 125 114 99 75 53 43 35 26 31 27 26 38 26 359 331 255 288 322 329 335 337 339 341 340 336 333 329 327 322 321 321 319 321 316 299 294 289 279 264 256 248
142 139 131 110 84 60 50 38 33 28 24 28 26 26 11 356 346 316 316 328 335 339 342 345 342 343 338 335 329 321 317 316 314 305 307 307 306 309 303 293 285 267 262
144 138 119 93 72 51 38 32 24 17 12 9 10 18 10 358 343 331 325 333 331 338 342 343 344 344 341 338 331 324 320 315 309 305 304 302 301 297 300 299 293 286 279
145 129 110 83 55 41 28 18 15 11 13 12 8 3 358 354 347 339 331 330 332 336 338 341 340 339 338 337 331 321 315 311 308 306 304 303 300 298 296 294 290 288 284
150 146 127 81 44 28 24 20 14 9 6 4 5 6 2 357 348 340 333 330 331 333 335 337 340 337 338 334 328 326 323 320 313 306 304 303 302 298 296 294 288 285 282
156 146 142 133 45 34 23 11 2 359 2 7 6 1 355 348 341 336 336 334 331 328 328 331 334 335 333 330 328 325 322 320 317 314 307 301 300 300 298 296 293 286 283
171 171 186 172 84 35 14 7 5 6 5 4 357 353 347 340 335 332 331 329 328 320 320 325 327 329 328 327 326 323 321 319 315 312 310 305 297 297 300 301 299 297 294
187 190 181 166 83 19 15 12 6 5 357 354 349 344 337 333 328 326 323 323 319 315 308 319 324 326 326 324 325 323 320 318 316 312 308 305 305 304 306 307 303 299 296
193 188 184 185 139 11 5 4 355 350 347 346 342 337 330 325 325 322 322 321 319 318 313 318 322 323 322 322 323 324 323 320 320 319 316 312 304 299 299 298 297 297 299
199 197 195 194 233 347 344 340 337 339 339 339 337 332 326 324 320 317 317 317 317 318 317 317 320 320 320 321 322 324 327 322 320 323 325 322 317 309 304 302 294 290 294
204 202 201 213 263 316 324 321 319 320 325 329 328 323 321 317 314 313 312 313 314 315 318 317 317 319 321 325 325 324 327 327 326 326 325 324 322 319 317 312 305 298 295
209 211 216 229 263 293 301 299 300 304 312 315 317 319 316 312 311 310 309 311 314 319 319 318 318 321 323 326 327 326 323 324 325 325 324 324 326 321 318 316 313 311 301
213 215 226 240 264 281 288 289 289 296 299 303 309 314 313 311 309 308 309 313 318 318 319 319 319 321 322 320 319 319 314 315 315 318 318 320 320 319 314 317 315 311 308
217 222 231 245 265 278 283 284 287 290 293 300 308 311 311 309 307 306 307 312 315 317 315 315 317 310 312 313 313 311 310 310 308 319 312 310 310 309 311 317 314 304 299
223 228 235 249 264 274 279 283 284 286 292 300 306 308 307 306 305 305 308 311 314 317 308 306 305 308 305 314 318 315 310 304 303 301 304 302 311 306 315 315 311 305 302
229 233 242 254 261 266 273 277 280 285 293 299 302 304 303 303 303 305 310 314 318 316 314 314 309 309 313 308 301 300 301 301 303 310 310 301 311 310 314 314 318 315 305
233 238 247 254 257 260 267 271 276 285 291 297 298 298 299 300 303 307 312 312 311 309 313 310 307 310 315 315 315 312 310 312 311 311 302 307 311 308 308 309 318 309 306
238 243 250 255 256 258 262 266 274 282 288 293 293 297 297 300 303 303 307 308 301 309 313 313 314 314 317 318 321 324 323 315 304 304 308 304 309 313 311 311 297 296 313